OPS 4682 DEB, 27545

Orbit data source: Space-Track

OPS 4682 DEB, 27545 is space debris in LEO originally from a launch on Sat, 03 Apr 1965 UTC launched from the Air Force Western Test Range (AFWTR). Debris objects in space refer to the collection of defunct objects orbiting the Earth. Examples of debris include non-operational satellites, rocket bodies, and fragments generated from explosions, collisions, or faulty payload assembly.

Loading next visibility...
Identifier
27545, 1965-027BH
Orbit
LEO
Country
Flag of USUS
Related business
Manufacturer
Unknown
Mission
Spacecraft
Bus & Motor
Unknown
Mass
Unknown
Launch date (UTC)
1965-04-03 (61 years ago)
Launch vehicle
Unknown
Launch site
Air Force Western Test Range (AFWTR)
Object type
Payload
Rocket body
Debris
Shape & HBR
Unknown shape, 0.1 m
Radar Cross Section
Small (<0.1 m²)

Expand to show TLE details & history
Last TLE update: 5 hours ago

TLE from 5 hours ago
0 OPS 4682 DEB
1 27545U 65027BH  26104.16186979  .00000466  00000-0  16292-2 0  9991
2 27545  90.2489   5.8872 0025965  43.1000 114.4319 12.95199222146963
Epoch: 2026-04-14T03:53Z
TLE epoch observation values (Epoch: 2026-04-14T03:53:05.549Z)
Latitude
22.20923°
Longitude
-74.62689°
Altitude
1,291.917 km
Speed
7.208 km/s
True Right ascension
12h 23m 57s
True Declination
22° 05' 51"
Sunlit
Object was in full shadow at epoch
Visualization orbit readout
Latitude
Unknown
Longitude
Unknown
Altitude
Unknown
Speed
Unknown
Apparent Right ascension
Unknown
Apparent Declination
Unknown
Sunlit
N/A
Visualization observer readout
Local Sidereal Time
15:49:14
Azimuth
Unknown
Elevation
Unknown
Doppler factor
Unknown
Orbital elements
Apogee altitude
1,297.968 km
Perigee altitude
1,258.209 km
Semi-major axis
7,656.226 km
Eccentricity
0.0026
Inclination
90.2489°
RAAN
5.8872°
Arg. of periapsis
43.1°
True anomaly
114.70243°
Mean anomaly
114.4319°
Eccentric anomaly
114.5672°
Mean motion
3.23982 °/min
Orbital period
111.12 mins
BSTAR
0.0016292
Loading maneuver chart data...
Computing Atmospheric mass density...
Loading historical data...
Loading historical data...
Loading historical data...
Loading historical data...
Loading historical data...
Loading historical data...
Loading historical data...

Documentation

Showing up to 5 results
|